When you browse on this site, cookies collect data to enhance your experience and personalize the content and advertising you see.
Visit our Privacy Policy to learn more. By continuing to use the site, you agree to this use of cookies and data.
  • En España
  • Lista de países
  • Para 7 días
  • Temperatura del agua
  • El tiempo en el mapa
  • Informadores
  • user-avatar
    Iniciar sesión

    Tiempo cada hora Oral

    Hoy, 6 Junio, Sábado

    Tiempo Temperatura Precipitaciones Viento Presión Humedad
    00:00 +17°C° 1.7 mm 2 mps 753 mmHg 95%
    01:00 +17°C° 0.2 mm 2 mps 754 mmHg 94%
    02:00 +17°C° 0.2 mm 2 mps 754 mmHg 93%
    03:00 +17°C° 0 mm 2 mps 754 mmHg 92%
    04:00 +17°C° 0.1 mm 2 mps 754 mmHg 89%
    05:00 +18°C° 0.1 mm 3 mps 754 mmHg 86%
    06:00 +18°C° 0.1 mm 4 mps 754 mmHg 83%
    07:00 +20°C° 0.1 mm 4 mps 754 mmHg 77%
    08:00 +21°C° 0.1 mm 5 mps 754 mmHg 71%
    09:00 +22°C° 0 mm 5 mps 754 mmHg 69%
    10:00 +22°C° 0.1 mm 5 mps 754 mmHg 65%
    11:00 +23°C° 0.1 mm 5 mps 754 mmHg 61%
    12:00 +25°C° 0.1 mm 5 mps 755 mmHg 57%
    13:00 +25°C° 0.1 mm 4 mps 755 mmHg 55%
    14:00 +25°C° 0.1 mm 4 mps 755 mmHg 54%
    15:00 +25°C° 0.1 mm 3 mps 755 mmHg 52%
    16:00 +25°C° 0 mm 3 mps 755 mmHg 55%
    17:00 +25°C° 0 mm 2 mps 755 mmHg 58%
    18:00 +24°C° 0 mm 2 mps 755 mmHg 61%
    19:00 +23°C° 0 mm 1 mps 756 mmHg 63%
    20:00 +22°C° 0 mm 1 mps 756 mmHg 64%
    21:00 +21°C° 0 mm 1 mps 756 mmHg 66%
    22:00 +20°C° 0 mm 1 mps 756 mmHg 68%
    23:00 +20°C° 0 mm 1 mps 756 mmHg 71%

    Mañana, 7 Junio, Domingo

    Tiempo Temperatura Precipitaciones Viento Presión Humedad
    00:00 +19°C° 0 mm 1 mps 756 mmHg 73%
    01:00 +19°C° 0 mm 1 mps 756 mmHg 74%
    02:00 +19°C° 0 mm 1 mps 756 mmHg 76%
    03:00 +19°C° 0 mm 1 mps 757 mmHg 77%
    04:00 +18°C° 0 mm 2 mps 757 mmHg 77%
    05:00 +19°C° 0 mm 2 mps 756 mmHg 76%
    06:00 +20°C° 0 mm 2 mps 756 mmHg 76%
    07:00 +20°C° 0.3 mm 2 mps 756 mmHg 76%
    08:00 +20°C° 0.3 mm 2 mps 756 mmHg 76%
    09:00 +21°C° 0.3 mm 1 mps 757 mmHg 76%
    10:00 +21°C° 0.7 mm 2 mps 756 mmHg 74%
    11:00 +23°C° 0.7 mm 2 mps 756 mmHg 71%
    12:00 +22°C° 0.7 mm 3 mps 756 mmHg 69%
    13:00 +21°C° 2 mm 2 mps 756 mmHg 76%
    14:00 +20°C° 2 mm 2 mps 756 mmHg 84%
    15:00 +18°C° 2 mm 2 mps 756 mmHg 91%
    16:00 +18°C° 0.2 mm 2 mps 756 mmHg 90%
    17:00 +19°C° 0.2 mm 2 mps 756 mmHg 89%
    18:00 +19°C° 0.2 mm 2 mps 755 mmHg 88%
    19:00 +18°C° 0 mm 2 mps 756 mmHg 89%
    20:00 +18°C° 0 mm 2 mps 756 mmHg 91%
    21:00 +17°C° 0 mm 2 mps 756 mmHg 92%
    22:00 +17°C° 0 mm 2 mps 756 mmHg 93%
    23:00 +16°C° 0 mm 2 mps 756 mmHg 93%

    Pasado mañana, 8 Junio, Lunes

    Tiempo Temperatura Precipitaciones Viento Presión Humedad
    00:00 +16°C° 0 mm 2 mps 755 mmHg 94%
    01:00 +16°C° 0 mm 1 mps 755 mmHg 94%
    02:00 +16°C° 0 mm 1 mps 755 mmHg 93%
    03:00 +16°C° 0 mm 1 mps 755 mmHg 93%
    04:00 +18°C° 0 mm 1 mps 755 mmHg 91%
    05:00 +19°C° 0 mm 1 mps 755 mmHg 88%
    06:00 +20°C° 0 mm 1 mps 755 mmHg 86%
    07:00 +21°C° 0.6 mm 1 mps 755 mmHg 79%
    08:00 +22°C° 0.6 mm 1 mps 755 mmHg 73%
    09:00 +24°C° 0.6 mm 1 mps 756 mmHg 66%
    10:00 +24°C° 0.1 mm 1 mps 755 mmHg 61%
    11:00 +25°C° 0.1 mm 1 mps 755 mmHg 56%
    12:00 +26°C° 0.1 mm 1 mps 755 mmHg 51%
    13:00 +26°C° 0.1 mm 1 mps 755 mmHg 49%
    14:00 +26°C° 0.1 mm 1 mps 755 mmHg 48%
    15:00 +27°C° 0.1 mm 1 mps 755 mmHg 46%
    16:00 +26°C° 0.2 mm 1 mps 755 mmHg 52%
    17:00 +25°C° 0.2 mm 2 mps 755 mmHg 58%
    18:00 +24°C° 0.2 mm 2 mps 755 mmHg 64%
    19:00 +23°C° 0.2 mm 2 mps 755 mmHg 68%
    20:00 +21°C° 0.2 mm 3 mps 755 mmHg 73%
    21:00 +19°C° 0.2 mm 3 mps 755 mmHg 78%
    22:00 +19°C° 0.1 mm 3 mps 755 mmHg 79%
    23:00 +18°C° 0.1 mm 2 mps 755 mmHg 81%

    9 Junio, Martes

    Tiempo Temperatura Precipitaciones Viento Presión Humedad
    00:00 +18°C° 0.1 mm 2 mps 755 mmHg 82%
    01:00 +17°C° 0.6 mm 2 mps 756 mmHg 84%
    02:00 +17°C° 0.6 mm 2 mps 756 mmHg 87%
    03:00 +17°C° 0.6 mm 3 mps 756 mmHg 89%
    04:00 +17°C° 0.1 mm 3 mps 756 mmHg 85%
    05:00 +18°C° 0.1 mm 3 mps 756 mmHg 82%
    06:00 +19°C° 0.1 mm 4 mps 757 mmHg 79%
    07:00 +20°C° 0.1 mm 4 mps 757 mmHg 73%
    08:00 +22°C° 0.1 mm 5 mps 757 mmHg 67%
    09:00 +23°C° 0.1 mm 5 mps 757 mmHg 62%
    10:00 +24°C° 0 mm 6 mps 757 mmHg 58%
    11:00 +26°C° 0 mm 7 mps 757 mmHg 54%
    12:00 +27°C° 0 mm 7 mps 757 mmHg 50%
    13:00 +28°C° 0 mm 7 mps 757 mmHg 47%
    14:00 +29°C° 0 mm 6 mps 757 mmHg 44%
    15:00 +29°C° 0 mm 5 mps 757 mmHg 42%
    16:00 +28°C° 0 mm 5 mps 757 mmHg 46%
    17:00 +27°C° 0 mm 4 mps 757 mmHg 51%
    18:00 +26°C° 0 mm 4 mps 757 mmHg 56%
    19:00 +25°C° 0 mm 5 mps 757 mmHg 54%
    20:00 +23°C° 0 mm 6 mps 757 mmHg 51%
    21:00 +22°C° 0 mm 7 mps 757 mmHg 49%
    22:00 +22°C° 0 mm 6 mps 757 mmHg 49%
    23:00 +21°C° 0 mm 6 mps 757 mmHg 49%

    10 Junio, Miércoles

    Tiempo Temperatura Precipitaciones Viento Presión Humedad
    00:00 +21°C° 0 mm 6 mps 757 mmHg 50%
    01:00 +20°C° 0.1 mm 5 mps 758 mmHg 54%
    02:00 +19°C° 0.1 mm 5 mps 758 mmHg 58%
    03:00 +19°C° 0.1 mm 5 mps 758 mmHg 63%
    04:00 +19°C° 0.6 mm 5 mps 758 mmHg 64%
    05:00 +19°C° 0.6 mm 5 mps 758 mmHg 66%
    06:00 +20°C° 0.6 mm 5 mps 758 mmHg 68%
    07:00 +22°C° 0.2 mm 5 mps 758 mmHg 63%
    08:00 +25°C° 0.2 mm 5 mps 759 mmHg 57%
    09:00 +26°C° 0.2 mm 6 mps 759 mmHg 52%
    10:00 +27°C° 0 mm 5 mps 759 mmHg 51%
    11:00 +28°C° 0 mm 5 mps 759 mmHg 49%
    12:00 +28°C° 0 mm 5 mps 759 mmHg 48%
    13:00 +29°C° 0 mm 5 mps 759 mmHg 47%
    14:00 +30°C° 0 mm 4 mps 759 mmHg 45%
    15:00 +32°C° 0 mm 4 mps 759 mmHg 44%
    16:00 +29°C° 0 mm 4 mps 759 mmHg 48%
    17:00 +28°C° 0 mm 3 mps 759 mmHg 52%
    18:00 +27°C° 0 mm 3 mps 759 mmHg 57%
    19:00 +26°C° 0 mm 3 mps 759 mmHg 55%
    20:00 +25°C° 0 mm 3 mps 759 mmHg 54%
    21:00 +24°C° 0 mm 3 mps 759 mmHg 52%
    22:00 +24°C° 0 mm 3 mps 759 mmHg 52%
    23:00 +22°C° 0 mm 3 mps 759 mmHg 51%

    11 Junio, Jueves

    Tiempo Temperatura Precipitaciones Viento Presión Humedad
    00:00 +21°C° 0 mm 3 mps 759 mmHg 51%
    01:00 +21°C° 0 mm 3 mps 759 mmHg 51%
    02:00 +20°C° 0 mm 2 mps 759 mmHg 52%
    03:00 +20°C° 0 mm 2 mps 759 mmHg 52%
    04:00 +21°C° 0 mm 2 mps 759 mmHg 54%
    05:00 +23°C° 0 mm 2 mps 759 mmHg 56%
    06:00 +23°C° 0 mm 2 mps 759 mmHg 58%
    07:00 +25°C° 0 mm 2 mps 759 mmHg 54%
    08:00 +27°C° 0 mm 3 mps 759 mmHg 51%
    09:00 +29°C° 0 mm 3 mps 759 mmHg 47%
    10:00 +30°C° 0 mm 3 mps 759 mmHg 43%
    11:00 +32°C° 0 mm 4 mps 759 mmHg 38%
    12:00 +33°C° 0 mm 4 mps 759 mmHg 34%
    13:00 +34°C° 0 mm 3 mps 759 mmHg 33%
    14:00 +34°C° 0 mm 3 mps 758 mmHg 32%
    15:00 +34°C° 0 mm 3 mps 758 mmHg 32%
    16:00 +33°C° 0 mm 3 mps 758 mmHg 37%
    17:00 +30°C° 0 mm 2 mps 758 mmHg 42%
    18:00 +29°C° 0 mm 2 mps 757 mmHg 48%
    19:00 +28°C° 0 mm 3 mps 757 mmHg 48%
    20:00 +26°C° 0 mm 3 mps 757 mmHg 48%
    21:00 +25°C° 0 mm 3 mps 757 mmHg 48%
    22:00 +24°C° 0 mm 3 mps 757 mmHg 49%
    23:00 +24°C° 0 mm 3 mps 757 mmHg 49%
    Mostrar más